Miscellaneous Local Product
Issued by NWS Hastings, NE

Home | Current Version | Previous Version | Graphics & Text | Print | Product List | Glossary On
Versions: 1 2 3 4 5 6 7 8 9 10 11 12 13 14 15 16 17 18 19 20 21 22 23 24 25 26 27 28 29 30 31 32 33 34 35 36 37 38 39 40 41 42 43 44 45 46 47 48 49 50
000
AXUS43 KGID 310502
MISGRI

GID CWA HOURLY WEATHER ROUNDUP
NATIONAL WEATHER SERVICE HASTINGS NE
1200 AM CDT THU JUL 31 2014

NOTE: "FAIR" INDICATES FEW OR NO CLOUDS BELOW 12,000 FEET WITH NO
SIGNIFICANT WEATHER AND/OR OBSTRUCTIONS TO VISIBILITY.

...SOUTH CENTRAL NEBRASKA...

CITY           SKY/WX    TMP DP  RH WIND       PRES   REMARKS
GRAND ISLAND   PTCLDY    64  57  78 S8        30.15S
HASTINGS       MOCLDY    68  53  58 S5        30.16R
KEARNEY        MOCLDY    63  55  77 SE7       30.17R
ORD            PTCLDY    64  58  80 SE3       30.13S
YORK           PTCLDY    59  59 100 SW6       30.15S
AURORA         PTCLDY    61  59  92 CALM      30.15S
LEXINGTON      MOCLDY    66  60  80 S3        30.17S
HOLDREGE       MOCLDY    65  56  75 CALM      30.17R
HEBRON         PTCLDY    58  52  80 CALM      30.14S

...NEBRASKA PANHANDLE...

CITY           SKY/WX    TMP DP  RH WIND       PRES   REMARKS
CHADRON        MOCLDY    64  51  62 W8        30.17R
ALLIANCE       MOCLDY    61  56  83 W7        30.21F
SCOTTSBLUFF    MOCLDY    65  58  78 CALM      30.23S
SIDNEY         MOCLDY    61  57  87 W10       30.28S

...WESTERN AND NORTH CENTRAL NEBRASKA...

CITY           SKY/WX    TMP DP  RH WIND       PRES   REMARKS
VALENTINE      CLOUDY    71  52  50 SW10      30.11S
AINSWORTH      MOCLDY    65  54  65 S7        30.12F
ONEILL         CLEAR     66  60  79 SE7       30.14S
BROKEN BOW     PTCLDY    59  56  89 CALM      30.16R
IMPERIAL       CLEAR     63  58  83 W7        30.23S
NORTH PLATTE   PTCLDY    60  55  83 CALM      30.18S
MCCOOK         MOCLDY    64  59  83 W6        30.20R

...EASTERN NEBRASKA...

CITY           SKY/WX    TMP DP  RH WIND       PRES   REMARKS
NORFOLK        CLEAR     61  56  83 CALM      30.12F
SO SIOUX CITY  CLEAR     59  56  89 CALM      30.11S
TEKAMAH        CLEAR     58  53  84 CALM      30.11S
ALBION         CLEAR     61  56  85 CALM      30.14S
OMAHA EPPLEY   PTCLDY    64  58  80 CALM      30.11S
OFFUTT AFB     PTCLDY    57  57  99 CALM      30.11S
MILLARD        PTCLDY    64  57  80 CALM      30.11S
LINCOLN        PTCLDY    61  55  81 CALM      30.13R
NEBRASKA CITY  PTCLDY    67  55  65 CALM      30.12S
BEATRICE       PTCLDY    61  56  83 CALM      30.13S
FALLS CITY     CLEAR     62  57  83 CALM      30.11S

...NORTHERN KANSAS...

CITY           SKY/WX    TMP DP  RH WIND       PRES   REMARKS
GOODLAND       MOCLDY    62  59  90 NW5       30.25F
HILL CITY      MOCLDY    63  55  75 CALM      30.19R
NORTON         CLEAR     68  54  60 SE5       30.18R
PHILLIPSBURG   CLEAR     64  61  88 CALM      30.17R
SMITH CENTER   CLEAR     64  55  72 E5        30.16S
HAYS           PTCLDY    63  57  82 SW6       30.18R
RUSSELL        PTCLDY    62  60  93 SW7       30.15S
CONCORDIA      CLEAR     64  55  72 CALM      30.14S
SALINA         CLEAR     61  56  83 CALM      30.14S
TOPEKA         CLEAR     63  57  81 CALM      30.12R



USA.gov is the U.S. government's official web portal to all federal, state and local government web resources and services.